This demonstration page uses our WeatherBlox Daily Observations layout. Learn more.

Left ArrowRight Arrow

Hourly Observations for July 26, 2017

Temp ( °F °C ) Dew Point ( °F °C ) Humidity (%) Winds ( mph kmh ) Pressure ( in mb ) Visibility ( mi km ) Precip ( " mm )
12:54 am 00:54 Clear 83 28.3 69 20.6 63 63 SSE 15 24 29.91 1013 10 16 0.00 0.00
1:54 am 01:54 Clear 83 28.3 70 21.1 65 65 SSE 16 26 29.89 1012 10 16 0.00 0.00
2:54 am 02:54 Mostly Clear 81 27.2 70 21.1 69 69 S 13 20 29.87 1012 10 16 0.00 0.00
3:54 am 03:54 Mostly Clear 82 27.8 70 21.1 67 67 S 15 24 29.85 1011 10 16 0.00 0.00
4:54 am 04:54 Mostly Cloudy with Nearby Thunderstorms 83 28.3 70 21.1 65 65 W 12 19 29.91 1013 10 16 0.00 0.00
5:05 am 05:05 Cloudy with Thunderstorms 82 27.8 71 21.7 69 69 W 23 37 29.94 1014 10 16 0.00 0.00
5:20 am 05:20 Cloudy with Nearby Thunderstorms 76 24.4 73 22.8 91 91 W 13 20 29.94 1014 3 4 0.05 1.27
5:34 am 05:34 Cloudy with Nearby Thunderstorms 75 23.9 72 22.2 90 90 W 6 9 29.94 1014 2 3 0.21 5.33
5:39 am 05:39 Cloudy with Nearby Thunderstorms 75 23.9 72 22.2 90 90 SW 7 11 29.94 1014 3 5 0.23 5.84
5:54 am 05:54 Mostly Cloudy with Nearby Thunderstorms 75 23.9 72 22.2 90 90 SSW 7 11 29.94 1014 6 10 0.26 6.60
6:02 am 06:02 Mostly Cloudy with Light Rain 74 23.3 72 22.2 94 94 WSW 6 9 29.91 1013 5 8 0.02 0.51
6:54 am 06:54 Partly Cloudy with Light Rain 74 23.3 73 22.8 97 97 SSE 10 17 29.93 1014 7 11 0.09 2.29
7:54 am 07:54 Mostly Cloudy with Light Rain 75 23.9 73 22.8 94 94 SE 7 11 29.94 1014 6 10 0.05 1.27
8:43 am 08:43 Mostly Cloudy with Light Rain 75 23.9 73 22.8 94 94 SE 13 20 29.94 1014 5 8 0.03 0.76
8:54 am 08:54 Cloudy with Light Rain 75 23.9 73 22.8 94 94 SSE 10 17 29.95 1014 7 11 0.04 1.02
9:03 am 09:03 Mostly Cloudy with Light Rain 75 23.9 73 22.8 94 94 SSE 8 13 29.91 1013 9 14 0.00 0.03
9:17 am 09:17 Mostly Sunny 75 23.9 72 22.2 90 90 SSE 9 15 29.91 1013 10 16 0.00 0.03
9:54 am 09:54 Mostly Cloudy with Rain 75 23.9 72 22.2 90 90 S 6 9 29.94 1014 4 6 0.01 0.25
10:54 am 10:54 Cloudy 77 25 72 22.2 85 85 SE 5 7 29.93 1014 10 16 0.01 0.25
11:54 am 11:54 Mostly Cloudy 80 26.7 74 23.3 82 82 SE 6 9 29.93 1013 10 16 0.00 0.00
12:54 pm 12:54 Cloudy 81 27.2 75 23.9 82 82 SSE 5 7 29.93 1014 10 16 0.00 0.00
1:54 pm 13:54 Cloudy 81 27.2 74 23.3 79 79 S 3 6 29.94 1014 10 16 0.01 0.25
2:54 pm 14:54 Cloudy 79 26.1 75 23.9 88 88 NNE 13 20 29.94 1014 10 16 0.00 0.00
3:21 pm 15:21 Cloudy with Light Rain 76 24.4 73 22.8 91 91 N 13 20 29.91 1013 3 5 0.02 0.51
3:37 pm 15:37 Cloudy with Heavy Rain 74 23.3 72 22.2 94 94 N 12 19 29.91 1013 2 3 0.05 1.27
3:43 pm 15:43 Cloudy with Heavy Rain 74 23.3 72 22.2 94 94 N 12 19 29.91 1013 1 1 0.17 4.32
3:50 pm 15:50 Cloudy with Strong Thunderstorms 73 23 72 22 94 94 NW 8 13 29.94 1014 1 1 0.32 8.13
3:54 pm 15:54 Cloudy with Strong Thunderstorms 73 22.8 72 22.2 96 96 NW 5 7 29.95 1014 1 1 0.37 9.40
4:08 pm 16:08 Cloudy with Heavy Rain 73 22.8 72 22.2 96 96 NNW 3 6 29.94 1014 1 1 0.32 8.13
4:17 pm 16:17 Cloudy with Nearby Thunderstorms 73 22.8 72 22.2 96 96 N 9 15 29.97 1015 1 1 0.46 11.68
4:35 pm 16:35 Mostly Cloudy with Strong Thunderstorms 73 22.8 72 22.2 96 96 N 8 13 29.97 1015 1 1 0.87 22.10
4:45 pm 16:45 Cloudy with Strong Thunderstorms 73 22.8 72 22.2 96 96 NNE 8 13 29.97 1015 1 1 1.19 30.23
4:54 pm 16:54 Cloudy with Strong Thunderstorms 73 22.8 72 22.2 96 96 N 7 11 29.96 1015 1 1 1.36 34.54
5:16 pm 17:16 Cloudy with Nearby Thunderstorms 73 22.8 72 22.2 96 96 N 8 13 29.97 1015 1 2 0.44 11.18
5:23 pm 17:23 Cloudy with Nearby Thunderstorms 73 22.8 72 22.2 96 96 N 8 13 29.97 1015 1 1 0.53 13.46
5:28 pm 17:28 Cloudy with Heavy Rain 73 22.8 73 22.8 100 100 N 7 11 29.97 1015 1 2 0.59 14.99
5:35 pm 17:35 Cloudy with Light Rain 73 22.8 72 22.2 96 96 N 6 9 29.97 1015 3 5 0.60 15.24
5:49 pm 17:49 Cloudy with Light Rain 73 23 73 23 100 100 N 3 6 29.97 1015 4 6 0.62 15.75
5:54 pm 17:54 Cloudy with Rain 74 23.3 73 22.8 97 97 NE 8 13 29.96 1015 3 5 0.63 16.00
6:54 pm 18:54 Cloudy 76 24.4 74 23.3 94 94 NE 7 11 29.96 1015 10 16 0.00 0.03
7:05 pm 19:05 Cloudy 76 24.4 74 23.3 94 94 NE 6 9 29.94 1014 10 16 0.00 0.00
7:15 pm 19:15 Cloudy 77 25 74 23.3 90 90 NE 7 11 29.94 1014 10 16 0.00 0.00
7:54 pm 19:54 Mostly Cloudy 77 25 73 22.8 88 88 ENE 6 9 29.96 1015 10 16 0.00 0.00
8:54 pm 20:54 Clear 74 23.3 72 22.2 94 94 N 7 11 29.96 1014 7 11 0.00 0.00
9:19 pm 21:19 Mostly Cloudy 75 23.9 73 22.8 94 94 N 8 13 29.94 1014 7 11 0.00 0.00
9:54 pm 21:54 Mostly Cloudy 74 23.3 72 22.2 94 94 NNE 9 15 29.98 1015 7 11 0.00 0.00
10:08 pm 22:08 Mostly Cloudy 74 23.3 72 22.2 94 94 NNE 8 13 30.00 1016 7 11 0.00 0.00
10:54 pm 22:54 Mostly Cloudy with Mist and Fog 73 22.8 72 22.2 96 96 NNE 5 7 29.99 1016 4 6 0.00 0.00
11:08 pm 23:08 Mostly Clear with Mist and Fog 73 22.8 72 22.2 96 96 N 6 9 30.00 1016 5 8 0.00 0.00
11:51 pm 23:51 Mostly Cloudy with Mist and Fog 73 23 72 22 94 94 Calm 30.00 1016 5 8 0.00 0.00
11:54 pm 23:54 Mostly Cloudy with Mist and Fog 73 22.8 71 21.7 94 94 NE 3 6 30.00 1016 5 8 0.00 0.00

Powered by AerisWeather